{"data":{"norad_id":55137,"intl_designator":"2023-003E","name":"2023-003E","alt_names":[],"object_type":"PAYLOAD","status":"ACTIVE","operator":null,"country":"PRC","launch_date":"2023-01-09","launch_site_code":"JSC","launch_vehicle":null,"mission":null,"orbit_class":"UNKNOWN","rcs_meters":null,"size_class":null,"mass_kg":null,"dimensions":null,"purposes":[],"wikipedia_slug":null,"has_3d_model":false,"image_url":null,"decayed_at":null,"tle_current":{"epoch":"2026-05-25T04:51:25.968096Z","epoch_age_seconds":68264,"freshness":"FRESH","line1":"1 55137U 23003E   26145.20238389  .00022231  00000+0  34399-3 0  9992","line2":"2 55137  97.1440 220.6753 0004332 173.8273 186.3035 15.54065820188690","mean_motion":15.5406582,"eccentricity":0.0004332,"inclination_deg":97.144,"raan_deg":220.6753,"arg_perigee_deg":173.8273,"mean_anomaly_deg":186.3035,"bstar":0.00034399,"rev_number":18869,"period_min":92.660168022999,"perigee_km":401.93113712157,"apogee_km":407.80793398397,"semimajor_km":6783.0065355528,"source":"CELESTRAK","updated_at":"2026-05-25T13:37:58.842431Z"}}}